This demonstration page uses our WeatherBlox Daily Observations layout. Learn more.

Left ArrowRight Arrow

Hourly Observations for January 22, 2016

Temp ( °F °C ) Dew Point ( °F °C ) Humidity (%) Winds ( mph kmh ) Pressure ( in mb ) Visibility ( mi km ) Precip ( " mm )
12:53 am 00:53 Cloudy 23 -5 19 -7.2 85 85 N 10 17 30.41 1030 10 16 0.00 0.00
1:29 am 01:29 Cloudy 23 -5 19 -7.2 85 85 NNW 10 17 30.45 1031 10 16 0.00 0.00
1:53 am 01:53 Cloudy 23 -5 19 -7.2 85 85 N 10 17 30.39 1029 10 16 0.00 0.00
2:53 am 02:53 Cloudy with Mist and Fog 23 -5 19 -7.2 85 85 N 10 17 30.40 1029 6 10 0.00 0.00
3:53 am 03:53 Cloudy 22 -5.6 19 -7.2 89 89 N 13 20 30.40 1030 8 13 0.00 0.00
4:53 am 04:53 Cloudy 22 -5.6 18 -7.8 85 85 N 14 22 30.41 1030 10 16 0.00 0.00
5:53 am 05:53 Cloudy 22 -5.6 18 -7.8 85 85 NNW 9 15 30.42 1030 10 16 0.00 0.00
6:15 am 06:15 Cloudy 22 -5.6 19 -7.2 89 89 NNW 9 15 30.48 1032 10 16 0.00 0.00
6:53 am 06:53 Cloudy 21 -6.1 18 -7.8 88 88 N 12 19 30.43 1030 9 14 0.00 0.00
7:53 am 07:53 Cloudy with Mist and Fog 21 -6.1 18 -7.8 88 88 N 10 17 30.44 1031 5 8 0.00 0.00
8:25 am 08:25 Cloudy with Mist and Fog 21 -6.1 19 -7.2 92 92 NNW 8 13 30.50 1033 3 5 0.00 0.00
8:53 am 08:53 Cloudy with Mist and Fog 21 -6.1 18 -7.8 88 88 NNW 9 15 30.45 1031 5 8 0.00 0.00
9:48 am 09:48 Cloudy 21 -6 19 -7 93 93 NNE 10 17 30.53 1034 9 14 0.00 0.00
9:53 am 09:53 Cloudy 21 -6.1 19 -7.2 92 92 N 10 17 30.47 1032 8 13 0.00 0.00
10:05 am 10:05 Cloudy 21 -6.1 19 -7.2 92 92 NNE 9 15 30.53 1034 7 11 0.00 0.00
10:51 am 10:51 Cloudy 21 -6 18 -8 86 86 NNE 6 9 30.53 1034 7 11 0.00 0.00
10:53 am 10:53 Cloudy 22 -5.6 18 -7.8 85 85 NNE 6 9 30.47 1032 7 11 0.00 0.00
11:53 am 11:53 Cloudy 23 -5 18 -7.8 81 81 NNE 5 7 30.46 1032 7 11 0.00 0.00
12:53 pm 12:53 Cloudy 24 -4.4 18 -7.8 77 77 Calm 30.44 1031 8 13 0.00 0.00
1:28 pm 13:28 Cloudy 25 -4 19 -7 80 80 VRB 3 6 30.48 1032 8 13 0.00 0.00
1:53 pm 13:53 Cloudy 25 -3.9 20 -6.7 81 81 Calm 30.41 1030 8 13 0.00 0.00
2:26 pm 14:26 Cloudy 25 -4 19 -7 80 80 Calm 30.45 1031 9 14 0.00 0.00
2:53 pm 14:53 Cloudy 24 -4.4 19 -7.2 81 81 WNW 3 6 30.40 1030 10 16 0.00 0.00
3:53 pm 15:53 Cloudy 25 -3.9 19 -7.2 78 78 Calm 30.40 1029 10 16 0.00 0.00
4:53 pm 16:53 Cloudy 24 -4.4 18 -7.8 77 77 WNW 6 9 30.40 1030 10 16 0.00 0.00
5:53 pm 17:53 Cloudy 23 -5 18 -7.8 81 81 SE 6 9 30.38 1029 10 16 0.00 0.00
6:21 pm 18:21 Cloudy 23 -5 18 -7.8 81 81 ESE 5 7 30.39 1029 10 16 0.00 0.00
6:50 pm 18:50 Cloudy 23 -5 18 -8 80 80 SSW 7 11 30.39 1029 10 16 0.00 0.00
6:53 pm 18:53 Cloudy 23 -5 18 -7.8 81 81 SSW 5 7 30.37 1028 10 16 0.00 0.00
7:53 pm 19:53 Cloudy 23 -5 18 -7.8 81 81 S 6 9 30.38 1029 8 13 0.00 0.00
8:02 pm 20:02 Cloudy 23 -5 18 -8 80 80 SW 6 9 30.42 1030 8 13 0.00 0.00
8:53 pm 20:53 Cloudy 22 -5.6 18 -7.8 85 85 SSW 6 9 30.37 1028 7 11 0.00 0.00
9:53 pm 21:53 Cloudy 22 -5.6 18 -7.8 85 85 SW 6 9 30.35 1028 9 14 0.00 0.00
10:51 pm 22:51 Cloudy 21 -6 19 -7 93 93 S 7 11 30.36 1028 10 16 0.00 0.00
10:53 pm 22:53 Cloudy 21 -6.1 19 -7.2 92 92 S 7 11 30.33 1027 10 16 0.00 0.00
11:53 pm 23:53 Cloudy with Mist and Fog 21 -6.1 19 -7.2 92 92 S 9 15 30.32 1027 6 10 0.00 0.00

Powered by AerisWeather